Location: Homewood
(41.1836°S, 175.9581°E)
Time: 09:06:30
(UTC+00:00)

NOSS 3-3 (A) - Pass Details

Date: 21 July 2024
Orbit: 719 x 1490 km, 63.4° (Epoch: 30 April)

Event Time Altitude Azimuth Distance (km) Brightness Sun altitude
Exits shadow 17:21:30 29° 201° (SSW) 1,633 4.9 -24.5°
Maximum altitude 17:24:37 63° 129° (SE) 966 4.1 -23.9°
Drops below altitude 10° 17:29:53 10° 48° (NE) 2,333 6.7 -22.9°
Sets 17:32:09 0° 44° (NE) 3,199 7.5 -22.5°
